OPS 4682 DEB, 17093

Orbit data source: Space-Track

OPS 4682 DEB, 17093 is space debris in LEO originally from a launch on Sat, 03 Apr 1965 UTC launched from the Air Force Western Test Range (AFWTR). Debris objects in space refer to the collection of defunct objects orbiting the Earth. Examples of debris include non-operational satellites, rocket bodies, and fragments generated from explosions, collisions, or faulty payload assembly.

Loading next visibility...
Identifier
17093, 1965-027U
Orbit
LEO
Country
Flag of USUS
Related business
Manufacturer
Unknown
Mission
Spacecraft
Bus & Motor
Unknown
Mass
Unknown
Launch date (UTC)
1965-04-03 (61 years ago)
Launch vehicle
Unknown
Launch site
Air Force Western Test Range (AFWTR)
Object type
Payload
Rocket body
Debris
Shape & HBR
Unknown shape, 0.1 m
Radar Cross Section
Small (<0.1 m²)

Expand to show TLE details & history
Last TLE update: 17 hours ago

TLE from 17 hours ago
0 OPS 4682 DEB
1 17093U 65027U   26104.21446339  .00000943  00000-0  31895-2 0  9999
2 17093  90.2452   7.1421 0023879 190.7744 324.4429 12.98145958938673
Epoch: 2026-04-14T05:08Z
TLE epoch observation values (Epoch: 2026-04-14T05:08:49.636Z)
Latitude
24.96706°
Longitude
-92.34505°
Altitude
1,257.533 km
Speed
7.236 km/s
True Right ascension
12h 29m 01s
True Declination
24° 50' 40"
Sunlit
Object was in full shadow at epoch
Visualization orbit readout
Latitude
Unknown
Longitude
Unknown
Altitude
Unknown
Speed
Unknown
Apparent Right ascension
Unknown
Apparent Declination
Unknown
Sunlit
N/A
Visualization observer readout
Local Sidereal Time
04:22:26
Azimuth
Unknown
Elevation
Unknown
Doppler factor
Unknown
Orbital elements
Apogee altitude
1,284.744 km
Perigee altitude
1,248.235 km
Semi-major axis
7,644.626 km
Eccentricity
0.00239
Inclination
90.2452°
RAAN
7.1421°
Arg. of periapsis
190.7744°
True anomaly
324.28339°
Mean anomaly
324.4429°
Eccentric anomaly
324.36318°
Mean motion
3.2472 °/min
Orbital period
110.86 mins
BSTAR
0.0031895
Loading maneuver chart data...
Computing Atmospheric mass density...
Loading historical data...
Loading historical data...
Loading historical data...
Loading historical data...
Loading historical data...
Loading historical data...
Loading historical data...

Documentation

Showing up to 5 results
|